{"data":{"norad_id":48045,"epoch":"2026-09-19T22:17:28.114368Z","epoch_age_seconds":67545,"freshness":"FRESH","line1":"1 48045U 21025D   26262.92879762 -.00000025  00000+0 -10216-3 0  9990","line2":"2 48045  87.8918 301.3749 0001935  96.2985 263.8364 13.13470424265945","mean_motion":13.13470424,"eccentricity":0.0001935,"inclination_deg":87.8918,"raan_deg":301.3749,"arg_perigee_deg":96.2985,"mean_anomaly_deg":263.8364,"bstar":-0.00010216,"rev_number":26594,"period_min":109.6332261228,"perigee_km":1208.2955081399,"apogee_km":1211.2320257367,"semimajor_km":7587.9007669383,"source":"CELESTRAK","updated_at":"2026-09-20T09:00:44.584191Z"}}